Location: Shell Point
(30.0571°N, 84.2896°W)
Time: 04:38:41
(UTC-05:00)

Meteor 2-19 Rocket - Visible Passes

Search period start: 20 December 2014 00:00
Search period end: 30 December 2014 00:00
Orbit: 937 x 958 km, 82.5° (Epoch: 19 December)

Date Brightness Start Highest point End Pass type
(mag) Time Alt. Az. Time Alt. Az. Time Alt. Az.
20 Dec 7.5 05:43:42 10° ENE 05:44:13 10° ENE 05:44:44 10° ENE visible
20 Dec 5.1 18:58:20 10° SSE 19:03:25 29° E 19:04:27 28° ENE visible
20 Dec 6.0 20:42:55 10° SW 20:48:04 29° WNW 20:48:37 29° WNW visible
21 Dec 7.0 05:57:27 10° NNE 06:01:33 18° ENE 06:05:39 10° ESE visible
21 Dec 4.5 19:14:30 10° SSE 19:20:16 49° E 19:22:43 32° NE visible
21 Dec 6.7 21:01:26 10° WSW 21:05:19 18° WNW 21:06:53 16° NW visible
22 Dec 6.3 06:13:26 10° NNE 06:18:47 31° ENE 06:24:06 10° SE visible
22 Dec 4.3 19:31:10 10° S 19:37:12 83° E 19:41:02 24° N visible
23 Dec 5.4 06:29:57 10° N 06:35:55 51° E 06:41:51 10° SSE visible
23 Dec 5.9 18:07:07 10° ESE 18:10:04 14° E 18:13:01 10° NE visible
23 Dec 4.9 19:48:17 10° SSW 19:54:13 59° W 19:59:24 14° N visible
24 Dec 4.6 06:46:47 10° N 06:52:58 85° E 06:59:07 10° S visible
24 Dec 5.4 18:22:04 10° SE 18:26:48 24° E 18:31:32 10° NE visible
24 Dec 5.8 20:05:52 10° SW 20:11:19 35° W 20:16:49 10° NNW visible
25 Dec 7.1 05:21:20 10° NE 05:24:46 15° ENE 05:28:11 10° ESE visible
25 Dec 4.8 18:38:01 10° SSE 18:43:37 41° E 18:49:15 10° NNE visible
25 Dec 6.6 20:24:05 10° WSW 20:28:31 21° WNW 20:33:00 10° NNW visible
26 Dec 6.5 05:37:01 10° NNE 05:42:02 26° ENE 05:47:01 10° SE visible
26 Dec 4.3 18:54:32 10° S 19:00:31 70° E 19:06:34 10° NNE visible
26 Dec 7.2 20:43:36 10° W 20:45:50 12° WNW 20:48:04 10° NW visible
27 Dec 5.6 05:53:23 10° N 05:59:12 43° E 06:04:59 10° SSE visible
27 Dec 4.7 19:11:29 10° SSW 19:17:30 71° W 19:23:35 10° N visible
28 Dec 4.7 06:10:07 10° N 06:16:16 72° E 06:22:23 10° SSE visible
28 Dec 5.6 19:28:54 10° SSW 19:34:34 42° W 19:40:18 10° N visible
29 Dec 7.2 04:45:31 10° NE 04:47:58 12° ENE 04:50:24 10° E visible
29 Dec 4.4 06:27:09 10° NNW 06:33:16 70° W 06:39:21 10° S visible
29 Dec 5.1 18:01:36 10° SSE 18:06:58 34° E 18:12:22 10° NNE visible
29 Dec 6.5 19:46:52 10° SW 19:51:44 25° WNW 19:56:40 10° NNW visible
